Location: Ashtead
(51.3000°N, 0.3000°W)
Time: 18:38:00
(UTC+00:00)

Meteor 1-20 Rocket - Pass Details

Date: 26 September 2023
Orbit: 818 x 891 km, 81.2° (Epoch: 08 December)

Event Time Altitude Azimuth Distance (km) Brightness Sun altitude
Rises 03:14:50 0° 344° (NNW) 3,510 7.6 -24.4°
Reaches altitude 10° 03:17:20 10° 341° (NNW) 2,560 6.8 -24.0°
Maximum altitude 03:23:02 58° 264° (W) 1,022 4.3 -23.3°
Enters shadow 03:23:52 52° 230° (SW) 1,076 4.3 -23.2°
